Temperature
20 21 22 23 23 21 21 20 20 21 20 22 21 21 22 23 23 23 24 25 24 24 23 23 22 22 21 21 21 20 20 20 19 19 19 18 18 17 17 17 17 16 16 16
21 21 22 23 23 22 22 21 21 22 21 21 21 22 22 22 22 23 24 25 25 24 24 23 23 22 22 21 21 20 20 20 19 19 19 18 18 17 17 17 17 16 16 16
19 21 22 22 22 22 22 21 21 22 22 20 20 20 21 22 23 23 24 24 24 24 24 24 23 23 22 21 21 20 20 19 19 19 18 18 18 17 17 17 16 16 16 16
17 20 21 21 21 21 21 20 20 20 19 19 20 21 22 23 23 24 24 24 24 24 24 24 23 23 22 21 21 20 20 19 19 19 18 18 17 17 17 16 16 16 16 15
16 18 20 21 21 20 21 20 19 19 18 19 20 21 21 23 23 24 24 24 24 24 24 23 23 22 22 21 20 20 20 19 19 18 18 18 17 17 17 16 16 16 15 15
15 19 19 20 20 20 20 20 19 18 18 18 19 19 20 22 23 23 23 24 24 24 24 23 23 22 21 21 20 20 20 19 19 18 18 17 17 17 16 16 16 15 15 15
16 17 18 18 17 19 20 19 18 18 18 18 18 19 21 22 23 23 23 23 23 23 23 22 22 21 21 21 20 20 19 19 18 18 17 17 17 16 16 16 15 15 15 14
14 17 17 17 17 18 17 18 18 18 19 19 19 20 21 22 22 22 22 22 22 22 22 21 21 21 20 20 20 19 19 18 18 17 17 16 16 16 16 15 15 15 14 14
14 14 15 15 16 17 17 17 18 19 19 19 20 20 21 21 21 21 21 21 21 21 21 20 20 20 20 20 19 19 18 18 17 17 16 16 16 15 15 15 15 14 14 14
13 14 15 15 16 17 17 18 18 19 19 19 19 20 20 20 20 20 20 20 20 20 20 19 19 19 19 18 18 18 18 17 17 16 16 16 15 15 15 15 14 14 14 14
13 14 15 16 16 17 17 18 18 19 19 19 19 19 19 19 19 19 20 20 20 19 19 19 18 18 18 18 17 17 17 17 16 16 16 15 15 15 14 14 14 14 13 13
13 14 13 15 16 17 17 17 18 18 18 18 18 18 18 18 18 18 18 19 18 18 18 18 18 17 17 17 17 16 16 16 16 15 15 15 14 14 14 14 13 13 13 13
15 15 15 16 16 17 17 17 17 18 18 18 17 17 17 17 17 17 17 17 17 17 17 17 17 17 16 16 16 16 16 15 15 15 14 14 14 14 13 13 13 12 12 12
15 15 15 16 16 16 16 16 17 17 17 17 17 17 16 17 16 16 16 16 16 16 16 16 16 16 16 16 15 15 15 15 14 14 14 14 13 13 13 12 12 12 12 11
15 15 15 15 15 16 16 16 16 16 16 16 16 16 16 16 16 16 15 15 15 15 15 15 15 15 15 15 15 15 14 14 14 13 13 13 12 12 12 12 12 11 11 11
14 15 15 15 15 15 15 15 15 15 15 15 16 15 15 15 15 15 15 15 15 15 15 15 14 14 14 14 14 14 14 13 13 13 12 12 12 12 11 11 11 11 11 11
13 14 14 14 14 14 14 14 14 15 15 15 15 15 15 14 14 14 14 14 14 14 14 14 14 14 13 13 13 13 13 13 12 12 12 12 11 11 11 11 11 11 10 10
13 13 13 14 14 14 14 14 14 14 14 14 14 14 14 14 14 14 13 13 13 13 13 13 13 13 13 13 13 12 12 12 12 12 11 11 11 11 11 10 10 10 10 10
12 12 13 13 13 13 13 14 14 14 14 14 14 13 13 13 13 13 13 12 12 12 12 12 12 12 12 12 12 12 12 12 11 11 11 11 11 10 10 10 10 10 10 9
12 12 12 12 13 13 13 13 13 13 13 13 13 13 13 12 12 12 12 12 12 12 12 11 11 11 12 12 11 11 11 11 11 11 11 10 10 10 10 10 10 9 9 9
11 11 12 12 12 12 12 12 12 12 12 12 12 12 12 12 12 11 11 11 11 11 11 11 11 11 11 11 11 11 11 11 10 10 10 10 10 10 10 9 9 9 9 9
11 11 11 11 12 12 12 12 12 12 12 12 11 11 11 11 11 11 11 11 11 11 11 11 11 11 11 11 11 11 10 10 10 10 10 10 10 10 9 9 9 9 9 9
10 10 11 11 11 11 11 11 11 11 11 11 11 11 11 11 11 11 10 10 10 10 10 10 11 11 11 10 10 10 10 10 10 10 10 10 9 9 9 9 9 9 8 8
9 10 10 10 10 10 10 10 10 10 10 10 10 10 10 10 10 10 10 10 10 10 10 10 10 10 10 10 10 10 10 10 9 9 9 9 9 9 9 9 8 8 8 8
9 9 9 10 10 10 10 10 10 10 10 10 10 10 10 10 10 10 10 10 10 10 10 10 10 10 9 9 9 9 9 9 9 9 9 9 9 8 8 8 8 8 8 8
9 9 9 9 9 9 10 10 10 10 10 9 9 9 9 9 9 9 9 9 9 9 9 9 9 9 9 9 9 9 9 9 9 9 8 8 8 8 8 8 8 7 7 7
9 9 9 9 9 9 9 9 9 9 9 9 9 9 9 9 9 9 9 9 9 9 9 9 9 8 8 8 8 8 8 8 8 8 8 8 8 7 7 7 7 7 7 6
Wind_Speed
6 5 5 5 6 7 6 9 9 9 8 10 9 8 7 6 5 7 7 7 8 8 8 7 7 7 7 7 7 8 7 6 5 5 5 5 4 4 3 3 3 3 4 3
1 3 4 3 5 7 5 5 5 4 8 8 6 3 3 4 6 8 9 9 9 9 9 10 10 9 8 8 8 7 7 6 6 6 5 5 5 4 4 4 3 4 4 3
3 1 4 4 5 6 4 3 5 6 6 5 3 4 5 5 6 8 9 9 9 10 11 11 10 10 10 8 7 8 7 6 6 6 6 5 5 5 4 4 4 4 4 3
3 4 6 8 2 3 4 1 1 4 6 5 6 5 3 3 6 7 7 7 8 8 8 8 8 8 8 8 8 7 7 6 6 6 6 5 5 5 4 3 3 3 3 3
4 5 3 4 0 2 3 1 2 3 5 4 3 1 2 2 2 5 6 5 6 7 7 7 8 9 10 9 8 8 7 7 7 7 6 6 5 5 4 4 3 3 3 3
5 5 7 5 3 3 3 2 3 2 3 3 3 2 4 4 2 2 1 1 4 6 7 9 9 10 11 10 9 8 8 7 7 7 7 6 6 5 3 4 4 4 3 3
4 4 5 4 8 3 5 5 4 3 2 0 1 3 4 4 3 2 2 2 4 7 7 7 9 11 10 9 8 7 6 6 6 6 6 6 5 4 4 4 4 4 3 2
5 4 5 5 4 2 4 3 3 3 2 0 1 2 3 3 4 4 5 4 5 6 6 6 9 10 10 8 6 6 7 7 7 6 5 5 5 4 4 5 5 4 3 2
5 5 4 3 2 3 2 1 2 2 3 1 2 2 3 3 4 4 4 4 5 6 6 5 6 8 8 6 7 8 7 6 6 6 5 5 5 5 4 4 4 3 3 2
1 1 3 4 3 3 2 0 1 2 2 2 3 2 3 3 3 4 3 3 4 6 6 4 4 5 5 7 8 8 8 7 6 6 5 5 4 4 4 4 3 3 3 3
1 1 3 4 4 4 4 4 4 4 3 3 3 2 2 3 2 2 2 3 4 4 4 4 3 4 5 6 7 8 7 6 6 6 6 5 4 2 3 2 3 4 4 3
4 5 3 3 4 3 3 4 3 3 4 4 3 3 3 3 2 1 2 2 4 4 4 4 4 3 4 5 6 7 6 5 5 4 4 4 4 3 5 3 4 3 3 3
4 3 4 4 3 2 1 2 2 3 2 3 3 3 2 2 2 2 2 3 3 3 4 4 4 3 3 4 6 6 6 5 4 4 5 5 5 5 3 2 4 4 3 2
3 2 2 3 3 3 2 2 2 2 2 2 2 1 2 2 2 2 1 1 2 3 3 3 4 2 2 5 6 6 5 5 5 4 4 4 4 4 4 4 2 1 2 2
4 4 5 4 3 2 2 2 2 2 2 3 2 1 1 2 1 1 1 1 3 3 2 2 3 1 2 4 6 6 5 3 3 4 4 4 4 4 4 4 3 2 1 1
3 2 2 2 3 3 2 1 1 3 3 2 2 2 1 1 2 1 1 2 3 2 2 2 2 1 2 4 5 4 4 5 4 4 4 4 4 4 4 4 3 3 2 2
3 3 3 3 3 3 3 4 4 4 3 3 2 1 1 1 1 1 1 2 3 2 2 2 2 2 2 3 5 4 4 4 6 4 3 4 4 4 4 3 3 3 2 3
5 5 5 4 4 4 4 3 3 3 3 3 1 1 2 3 3 3 2 2 2 1 0 1 2 2 2 3 3 4 4 4 4 4 3 3 3 3 4 3 3 3 2 2
2 3 3 3 3 3 3 3 3 2 2 1 1 1 1 2 3 3 3 3 3 2 2 1 3 3 3 3 4 3 4 4 4 3 3 4 4 3 3 3 3 3 3 2
3 3 3 3 2 1 2 2 2 2 2 1 1 1 1 1 2 3 3 3 2 2 2 2 2 2 2 3 4 3 4 4 4 4 3 3 3 3 3 3 3 3 2 2
4 4 4 3 3 2 2 2 1 2 2 1 2 3 2 1 1 2 2 1 2 1 2 3 2 2 2 3 5 4 4 4 4 4 3 3 3 3 3 3 3 3 3 2
4 3 3 2 2 3 3 2 1 1 1 1 1 1 1 1 1 1 1 1 1 1 1 1 1 3 4 5 3 4 4 4 3 3 3 3 3 2 2 2 2 2 2 2
3 2 2 1 1 2 2 2 2 1 1 0 1 1 2 1 1 2 0 0 1 2 2 1 3 5 5 3 3 3 4 3 3 3 3 2 2 2 2 2 2 2 2 1
2 1 1 1 1 1 2 3 3 2 3 3 3 3 3 3 2 2 1 2 3 3 3 3 5 6 5 3 3 3 3 3 3 2 2 2 2 1 1 1 1 1 1 1
2 2 2 3 2 1 1 2 3 4 4 4 5 5 4 3 2 2 3 4 5 5 4 4 6 6 5 4 4 4 4 3 3 3 3 3 2 2 1 1 1 1 1 0
2 2 2 3 2 2 2 3 3 3 3 4 4 4 4 4 5 5 4 5 6 6 5 4 5 6 5 5 5 5 5 4 4 4 4 3 3 2 2 2 2 1 1 1
3 3 3 3 3 3 3 3 3 3 3 4 4 4 4 4 5 5 5 5 5 5 5 5 5 5 6 6 6 6 5 5 5 4 4 4 4 3 3 3 2 2 2 3
Wind_Direction
213 207 177 182 182 172 174 178 182 223 229 257 257 245 238 220 199 186 187 186 182 181 181 175 173 175 174 174 171 166 161 164 169 161 150 143 141 138 134 136 140 134 120 105
211 205 190 199 206 182 188 178 204 231 255 262 277 251 226 206 192 197 201 199 188 183 183 180 179 181 178 177 173 164 162 163 157 149 144 143 139 131 125 121 122 122 115 109
204 204 115 225 218 189 183 179 178 209 250 300 292 248 222 208 199 206 206 201 192 192 191 187 183 178 177 178 166 160 159 156 154 149 149 149 142 132 130 128 121 115 114 117
139 117 193 237 266 172 149 122 243 256 277 276 260 247 237 208 203 212 207 200 195 191 190 183 171 165 159 155 153 154 154 157 155 152 151 145 138 138 132 122 120 119 117 115
129 163 234 289 312 142 150 230 299 277 298 309 317 29 342 302 236 229 217 200 189 179 173 163 162 157 149 148 150 157 163 168 164 161 158 153 152 149 140 133 127 121 119 119
126 148 205 235 306 308 136 257 320 325 317 328 41 60 288 317 316 312 324 157 155 147 144 153 156 150 150 156 163 173 172 172 164 164 164 163 162 153 142 140 142 137 125 122
145 181 244 284 305 319 163 232 310 323 311 317 176 228 284 332 353 23 49 90 123 129 140 152 150 150 154 159 175 176 160 155 155 160 162 158 155 150 144 141 138 136 131 117
140 166 239 321 359 126 212 270 305 312 309 293 263 314 0 23 36 45 53 70 103 118 126 138 149 153 158 170 170 151 150 152 155 155 156 154 151 148 147 150 150 150 142 124
176 200 257 300 283 280 232 245 311 333 330 358 23 19 28 34 45 56 62 80 99 114 118 121 140 151 160 162 146 143 141 148 152 147 148 149 151 152 151 154 158 161 157 158
102 294 315 331 335 343 351 348 333 3 16 44 48 40 51 59 56 57 63 78 95 109 119 123 134 140 142 139 142 144 148 154 156 154 153 147 146 153 159 167 171 170 174 180
116 262 345 347 348 339 351 9 25 32 39 50 72 57 49 50 49 68 82 81 97 114 125 127 126 125 133 144 148 150 152 156 161 158 153 148 140 136 157 160 186 182 188 180
204 218 186 255 293 330 7 7 11 29 30 35 57 66 66 64 51 46 67 87 99 103 114 117 117 119 124 140 148 153 155 160 162 161 158 157 152 117 69 91 105 114 131 157
209 212 208 248 281 319 340 346 4 26 35 37 35 55 66 72 74 71 67 77 106 119 120 119 116 120 131 136 144 150 156 158 159 162 165 165 164 163 161 101 84 93 110 139
227 208 258 263 273 314 319 325 359 34 36 44 49 68 91 85 90 93 99 127 124 117 118 122 120 131 158 143 143 143 147 154 162 170 171 169 171 173 172 169 165 134 71 86
271 232 229 254 283 305 311 340 12 357 347 354 5 17 105 122 135 140 153 123 104 104 117 128 125 134 142 142 141 143 147 152 162 165 166 165 163 163 162 162 162 152 120 88
282 279 239 232 252 273 289 305 293 291 294 301 326 327 310 136 123 110 120 131 136 160 170 150 151 168 144 141 138 141 147 152 159 157 153 154 156 161 163 167 173 175 179 177
243 256 247 250 251 253 249 246 247 256 257 253 250 237 165 129 117 125 182 173 161 172 172 167 179 165 148 149 149 153 153 153 149 147 153 161 164 170 173 176 180 184 197 182
237 242 240 235 241 250 256 256 255 255 243 235 212 168 170 177 187 198 205 184 144 126 153 174 172 156 148 151 151 151 153 154 156 158 159 162 168 170 168 174 181 183 188 167
302 280 276 269 257 250 256 260 266 270 259 228 178 199 213 212 202 190 178 177 181 201 242 203 165 156 156 164 153 151 155 154 154 156 159 162 167 174 175 177 181 186 182 179
331 329 331 323 313 278 267 272 271 273 268 233 198 191 203 211 187 174 171 190 223 223 201 182 169 166 164 157 150 152 153 155 158 160 160 164 169 173 176 176 177 181 187 198
326 322 325 327 317 315 300 287 270 271 273 233 206 210 217 223 174 158 161 211 279 184 156 163 170 174 167 158 152 153 154 157 159 161 165 170 174 179 187 191 194 197 202 210
311 308 311 312 320 326 326 323 301 276 274 248 209 181 164 156 137 126 160 210 232 136 129 149 156 149 148 144 149 152 152 154 155 159 165 168 171 179 191 195 199 202 205 214
306 300 302 302 295 308 335 352 8 23 26 72 128 128 133 141 142 141 155 312 102 117 109 115 123 121 124 125 139 144 142 141 144 151 156 162 172 180 186 190 196 197 202 212
324 349 342 3 72 50 10 6 31 52 62 64 66 80 97 93 63 53 97 101 95 95 82 90 100 100 98 105 116 120 121 123 125 131 137 138 139 143 148 153 156 161 177 193
16 36 43 55 64 60 52 55 62 66 67 63 57 56 59 72 85 75 78 88 89 85 76 78 83 86 85 90 96 98 97 98 104 109 105 101 99 101 100 98 95 81 52 43
48 47 48 54 64 67 71 73 70 69 70 65 56 56 61 66 73 73 72 72 74 74 72 71 76 81 80 81 83 85 86 86 84 80 79 79 80 78 75 71 64 48 30 20
48 51 52 52 49 61 74 78 80 72 72 82 72 57 62 68 71 71 73 73 72 71 69 68 73 79 80 81 81 80 78 77 74 73 72 70 70 68 59 55 44 35 32 30
Height
1499 1496 1496 1496 1498 1504 1507 1512 1520 1514 1511 1498 1490 1488 1486 1487 1489 1492 1495 1498 1501 1504 1507 1510 1513 1516 1519 1521 1523 1524 1526 1527 1529 1530 1531 1531 1532 1533 1533 1534 1535 1535 1536 1536
1498 1495 1495 1496 1495 1498 1499 1502 1505 1503 1502 1489 1487 1486 1486 1486 1488 1489 1492 1495 1498 1502 1505 1507 1511 1514 1516 1519 1521 1523 1524 1526 1528 1528 1529 1530 1531 1531 1532 1533 1533 1534 1534 1535
1507 1497 1497 1505 1495 1495 1495 1495 1497 1501 1495 1488 1486 1484 1484 1484 1485 1487 1489 1492 1496 1499 1502 1505 1508 1511 1514 1517 1519 1521 1523 1525 1526 1527 1528 1529 1529 1530 1531 1532 1532 1532 1533 1533
1510 1505 1516 1501 1488 1488 1491 1493 1493 1492 1489 1486 1484 1482 1482 1483 1484 1485 1487 1490 1493 1496 1500 1503 1506 1510 1512 1515 1518 1519 1521 1523 1524 1526 1527 1528 1528 1529 1530 1531 1531 1531 1532 1532
1514 1514 1506 1494 1488 1489 1492 1494 1490 1489 1487 1484 1482 1481 1482 1482 1483 1484 1486 1488 1490 1493 1497 1501 1504 1507 1510 1513 1516 1517 1519 1521 1522 1524 1526 1527 1527 1528 1529 1529 1530 1530 1530 1531
1511 1512 1514 1497 1487 1486 1489 1496 1488 1487 1486 1484 1483 1487 1484 1481 1481 1483 1485 1487 1488 1491 1494 1498 1501 1505 1508 1510 1513 1514 1517 1519 1520 1522 1524 1525 1526 1527 1527 1528 1528 1529 1529 1529
1508 1509 1503 1492 1487 1485 1499 1498 1488 1486 1485 1484 1484 1485 1483 1481 1481 1482 1483 1485 1487 1489 1492 1495 1499 1502 1505 1508 1510 1513 1515 1517 1519 1521 1522 1523 1524 1525 1526 1526 1526 1527 1527 1527
1508 1510 1507 1491 1487 1491 1492 1488 1487 1485 1485 1484 1483 1482 1481 1481 1481 1481 1482 1484 1486 1488 1490 1493 1496 1499 1502 1505 1508 1510 1512 1514 1516 1518 1520 1521 1522 1523 1524 1524 1524 1525 1525 1526
1501 1503 1495 1491 1490 1489 1488 1487 1486 1485 1484 1484 1483 1482 1482 1482 1481 1482 1483 1484 1486 1488 1490 1492 1495 1498 1500 1502 1506 1507 1509 1512 1514 1516 1517 1518 1519 1521 1521 1522 1522 1523 1523 1523
1497 1495 1493 1491 1490 1489 1488 1487 1486 1485 1485 1484 1484 1484 1484 1483 1483 1483 1484 1485 1486 1488 1490 1492 1494 1496 1499 1500 1502 1505 1507 1509 1511 1513 1514 1515 1516 1518 1519 1520 1520 1520 1521 1521
1496 1494 1492 1491 1490 1489 1488 1487 1486 1486 1485 1485 1484 1485 1485 1485 1484 1484 1484 1485 1486 1489 1490 1491 1493 1495 1496 1499 1501 1502 1504 1506 1508 1509 1511 1513 1514 1515 1516 1517 1519 1519 1519 1520
1495 1492 1492 1492 1491 1489 1488 1487 1486 1486 1485 1485 1485 1485 1485 1485 1485 1485 1485 1485 1486 1488 1490 1491 1492 1493 1494 1495 1498 1501 1502 1503 1505 1507 1509 1510 1511 1512 1513 1515 1516 1516 1517 1517
1490 1490 1490 1490 1490 1489 1488 1487 1486 1486 1486 1485 1485 1485 1484 1484 1485 1485 1486 1486 1487 1488 1489 1490 1491 1492 1493 1494 1496 1498 1500 1501 1503 1505 1506 1507 1508 1509 1510 1512 1513 1514 1514 1514
1489 1490 1489 1489 1488 1488 1488 1487 1486 1485 1485 1484 1484 1484 1484 1484 1484 1485 1485 1486 1487 1487 1488 1489 1489 1491 1492 1492 1494 1494 1497 1499 1500 1502 1503 1504 1506 1507 1508 1509 1510 1510 1512 1512
1487 1487 1487 1487 1487 1486 1486 1486 1485 1484 1484 1483 1483 1483 1483 1483 1483 1484 1485 1485 1485 1487 1487 1488 1488 1489 1490 1491 1492 1492 1494 1496 1498 1499 1500 1501 1503 1504 1505 1506 1507 1508 1508 1509
1485 1485 1484 1484 1484 1484 1484 1484 1484 1483 1483 1482 1482 1482 1482 1482 1482 1483 1484 1484 1485 1485 1486 1486 1487 1488 1489 1489 1489 1490 1491 1494 1495 1496 1497 1498 1500 1501 1502 1503 1504 1505 1505 1506
1482 1482 1482 1482 1482 1482 1482 1482 1482 1481 1481 1481 1481 1481 1481 1481 1481 1481 1482 1483 1484 1484 1484 1485 1485 1486 1487 1487 1487 1489 1490 1492 1493 1493 1494 1496 1497 1498 1499 1500 1501 1502 1503 1503
1480 1480 1480 1480 1480 1480 1480 1480 1479 1479 1478 1478 1478 1479 1478 1478 1479 1479 1480 1481 1482 1482 1482 1483 1484 1484 1485 1485 1486 1487 1489 1490 1491 1492 1493 1494 1495 1496 1496 1497 1498 1499 1500 1501
1477 1477 1477 1477 1477 1477 1477 1477 1477 1476 1476 1476 1476 1476 1476 1476 1477 1477 1478 1479 1479 1479 1480 1481 1482 1483 1483 1484 1485 1486 1487 1488 1489 1490 1491 1492 1493 1494 1494 1495 1497 1498 1498 1499
1474 1474 1474 1474 1474 1475 1474 1474 1474 1474 1474 1474 1474 1474 1474 1474 1475 1475 1476 1477 1477 1478 1479 1480 1481 1481 1481 1482 1484 1485 1486 1486 1487 1488 1489 1490 1491 1492 1493 1494 1495 1496 1496 1497
1472 1471 1471 1472 1472 1472 1472 1472 1472 1471 1471 1471 1471 1471 1471 1472 1473 1473 1474 1474 1476 1477 1477 1478 1479 1479 1480 1481 1483 1483 1484 1485 1486 1487 1488 1489 1490 1491 1492 1493 1493 1494 1494 1495
1469 1469 1469 1469 1469 1469 1470 1470 1469 1469 1469 1469 1469 1469 1469 1469 1470 1471 1472 1473 1474 1475 1476 1477 1477 1478 1479 1480 1481 1482 1483 1484 1485 1486 1487 1488 1488 1489 1490 1491 1492 1492 1492 1493
1466 1466 1466 1466 1467 1467 1467 1468 1467 1467 1467 1467 1467 1467 1468 1468 1469 1470 1471 1472 1473 1474 1475 1476 1476 1477 1478 1479 1480 1481 1482 1483 1484 1484 1485 1486 1487 1488 1489 1489 1490 1490 1490 1490
1464 1464 1465 1465 1466 1466 1466 1466 1467 1467 1467 1467 1467 1467 1468 1468 1469 1470 1471 1472 1473 1474 1474 1475 1476 1476 1477 1478 1479 1480 1481 1482 1483 1484 1485 1485 1486 1487 1487 1488 1488 1488 1488 1489
1464 1464 1464 1465 1465 1465 1466 1466 1466 1467 1467 1468 1468 1469 1469 1470 1470 1471 1472 1472 1473 1474 1474 1475 1476 1476 1477 1478 1479 1479 1481 1482 1483 1484 1484 1485 1485 1486 1486 1486 1486 1486 1487 1487
1465 1465 1465 1465 1466 1466 1467 1467 1467 1468 1469 1469 1470 1471 1471 1471 1472 1472 1473 1473 1474 1475 1475 1476 1476 1477 1478 1479 1479 1480 1481 1482 1483 1484 1484 1485 1485 1485 1485 1485 1485 1485 1485 1485
1467 1467 1467 1467 1468 1468 1469 1469 1470 1471 1471 1472 1472 1473 1474 1474 1474 1475 1475 1475 1476 1476 1477 1477 1478 1479 1479 1480 1481 1482 1482 1483 1483 1484 1484 1484 1484 1485 1485 1485 1484 1484 1484 1484